Погода Преображение

Погода Преображение : погода сейчас, прогноз погоды и архив. Всё, что Вы хотите узнать о погоде Преображение!

Хотите узнать прогноз погоды Преображение? Тогда Вам сюда: Погода Преображение

Поиск расширенной информации на нашем сайте:

Другие новости

Новости СМИ2

Главная страница сайта

Новости сайта

03.07.2017

Напоминаем, что на нашем специализированном сайте Метеоцентр.Азия вы можете получить высокодетализированные автоматические прогнозы погоды по пунктам России, СНГ и мира в авиационном формате (включающие направление и скорость ветра, видимость, явления погоды, количество и форму облачности, нижнюю и верхнюю границу облачности).

Рекомендуем: Правильная регулировка пластикового окна.

Погода Преображение - сегодня

Время (UTC), дата Ветер
(°,м/с) 
Видим.   Явления Облачность Т
(°С)
Тd
(°С)
f(%) Тe
(°С)
Pmin
(гПа)
dP
(гПа)
Po
(мм)
O2
(г/м3)
Тmin Tmax R s Состояние
почвы
00 15.02.18 270 (З) 20000 м    ясно 
-8.4 -22.7 31 -11  1016.6  1.1  758  317  -10.6         
03 15.02.18 290 (З) 20000 м    ясно 
-4.5 -21.7 25 -6  1015.2  -1.3  757  312           
06 15.02.18 360 (С) 20000 м    ясно 
-2.9 -23.4 19 -6  1014.5  -0.7  757  310           
09 15.02.18 250 (З) 20000 м    ясно 
-4.4 -23.2 21 -4  1016  1.5  758  312    -2.4       
12 15.02.18 280 (З) 20000 м    ясно 
-6.6 -22.6 27 -8  1017.7  1.6  759  315           
15 15.02.18 260 (З) 20000 м    ясно 
-6.7 -21.9 29 -6  1017.2  -0.5  759  315           
18 15.02.18 360 (С) 20000 м    ясно 
-10.5 -21.6 40 -12  1016.4  -0.8  758  319           
00 16.02.18 350 (С) 20000 м    ясно 
-6.5 -21.6 29 -8  1015.4  -0.3  757  314           
03 16.02.18 210 (ЮЗ) 20000 м    3/0 верхняя 
[Ci sp]
-2.4 -16.4 33 -4  1012.8  -2.4  756  308           
06 16.02.18 210 (ЮЗ) 20000 м    10/0 средняя, верхняя 
[Ac trans|Cs]
-2.5 -13.6 42 -5  1009.7  -3.1  753  308           
12 16.02.18 270 (З) 20000 м  {ливн. осадки}  ясно 
-6.1 -9.6 76 -6  1007.5  -1.2  752  311           
15 16.02.18 330 (СЗ) 20000 м    ясно 
-5.4 -17.4 38 -8  1007  -0.5  751  310           
18 16.02.18 270 (З) 3{14}  20000 м    ясно 
-8.3 -22.4 31 -11  1007.3  0.3  751  314           
00 17.02.18 010 (С) 6-15{15}  20000 м    8/0 верхняя 
[Cs]
-9.1 -23 31 -14  1008.3  1.1  752  315  -9.7         
12 17.02.18 010 (С) 3{10}  20000 м    ясно 
-9.3 -25.5 25 -12  1018.3  2.9  760  319           
15 17.02.18 010 (С) 20000 м    ясно 
-10.4 -25.4 28 -10  1020.7  2.4  761  321           
18 17.02.18 220 (ЮЗ) 20000 м    ясно 
-11 -25.1 30 -11  1021.7  762  322           
00 18.02.18 060 (СВ) 20000 м    ясно 
-11.1 -25.6 29 -11  1023.9  1.2  764  322  -14.5         
03 18.02.18 220 (ЮЗ) 20000 м    ясно 
-6.3 -23.3 25 -8  1022.3  -1.5  763  316           
06 18.02.18 140 (ЮВ) 20000 м    ясно 
-3.5 -21 24 -5  1019.9  -2.3  761  312           
09 18.02.18 050 (СВ) 20000 м    ясно 
-5.9 -19.6 33 -6  1021.2  1.2  762  315    -3.4       
12 18.02.18 070 (В) 20000 м    ясно 
-8.4 -24 27 -11  1022.6  1.4  763  319           
15 18.02.18 030 (СВ) 20000 м    ясно 
-11.6 -23.4 37 -16  1022.4  -0.3  763  323           
18 18.02.18 360 (С) 20000 м    ясно 
-11.9 -23.2 39 -14  1021.9  -0.5  762  323           
00 19.02.18 тихо ()   20000 м    ясно 
-7.9 -18.3 43 -8  1020.9  0.2  761  317           
Время (UTC), дата Ветер
(°,м/с) 
Видим.   Явления Облачность Т
(°С)
Тd
(°С)
f(%) Тe
(°С)
Pmin
(гПа)
dP
(гПа)
Po
(мм)
O2
(г/м3)
Тmin Tmax R s Состояние
почвы

Для получения пояснительной информации подведите курсор к названию столбца.

ПОГОДА Преображение - архив

Всё, что Вы хотите узнать о погоде Преображение - удобно и подробно!

Выберите нужную дату (начиная с 1 января 2015* года) и нажмите кнопку "Найти".
Будут отображены архивные сводки погоды по пункту Преображение, начиная с указанной даты.


Отображать данные в формате CSV (для использования в таблицах Excel)


Внимание! Наш архив погоды предназначен исключительно для личного некоммерческого использования в познавательных целях. Если Вам необходимы официальные справки о состоянии погоды (для производственных, юридических, коммерческих и т.п. целей), обращайтесь в органы Росгидромета.

*Примечание: данная дата относится к архиву по метеостанциям СССР (Россия, СНГ, Балтия).
Архив по метеостанциям Зарубежной Европы и Азии (кроме Китая) хранится 10 дней, по другим регионам земного шара (Китай, Африка, Америка, Австралия, Океания) - 1 день.

Преображение - район местоположения метеостанции


Название, широта, долгота, высота метеостанции:
Преображение 42.9°ш. 133.9°д. 43 м над ур. моря [Российская Федерация]

Дополнительная информация

В oтличие oт бoльшинства пoгoдных сайтoв мы публикуем пoдрoбную метеoинфoрмацию в детальнoм прoфессиoнальнoм фoрмате.

Характеристики температуры и влажнoсти вoздуха измеряются на высoте 2 м в тени вдали oт зданий и деревьев.
Скoрoсть ветра измеряется на высoте 10 м (на урoвне рoста челoвека скoрoсть ветра ниже в 1.5-2 раза). Если метеoстанция нахoдится в гoрoде или в лесу, тo скoрoсть ветра занижена на 2-4 м/с пo сравнению с oткрытым местoм. Скoрoсть ветра над акватoриями крупных рек и oзёр, а также на вершинах хoлмoв на 2-5 м/с выше, чем в oбычных услoвиях.
Атмoсфернoе давление в разных тoчках местнoсти мoжет значительнo oтличаться oт давления на метеoстанции, в зависимoсти oт услoвий рельефа (при пoдъёме на 10 м давление пoнижается примернo на 1 мм рт.ст.).